Location: Dominguez Junction
(33.8634°N, 118.2179°W)
Time: 18:45:43
(UTC+00:00)

ATLAS 3B R/B - Pass Details

Date: 29 October 2020
Orbit: 1014 x 1181 km, 63.8° (Epoch: 23 November)

Event Time Altitude Azimuth Distance (km) Brightness Sun altitude
Exits shadow 12:44:57 28° 286° (WNW) 1,798 3.3 -18.2°
Maximum altitude 12:46:28 31° 310° (NW) 1,700 3.3 -17.9°
Drops below altitude 10° 12:52:15 10° 11° (N) 2,825 5.0 -16.7°
Sets 12:55:15 0° 22° (NNE) 3,797 5.8 -16.1°
